Location: Crni Vrh Observatory
(45.9460°N, 14.0712°E)
Time: 10:47:06
(UTC+02:00)

ISS - Visible Passes

Search period start: 21 May 2026 00:00
Search period end: 31 May 2026 00:00
Orbit: 414 x 424 km, 51.6° (Epoch: 20 May)

Date Brightness Start Highest point End Pass type
(mag) Time Alt. Az. Time Alt. Az. Time Alt. Az.
21 May -3.6 21:51:58 10° WNW 21:55:18 72° NNE 21:57:43 17° ESE visible
21 May -1.6 23:29:17 10° W 23:30:39 17° WSW 23:30:39 17° WSW visible
22 May -2.7 22:41:13 10° WNW 22:44:13 31° SW 22:44:38 30° SSW visible
23 May -3.3 21:53:20 10° WNW 21:56:34 49° SW 21:58:40 19° SE visible
24 May -1.4 22:43:37 10° WSW 22:45:11 13° SW 22:45:39 12° SW visible
25 May -1.9 21:55:04 10° W 21:57:36 20° SW 21:59:44 12° S visible
